QPF
0.02 0.03 0.04 0.05 0.07 0.09 0.10 0.12 0.14 0.09 0.02 0.00 0.00 0.00 0.00 0.00 0.00 0.00 0.00 0.00 0.00 0.00 0.00 0.01 0.01 0.01 0.02 0.04 0.08 0.15 0.25 0.41 0.40 0.29 0.24 0.27 0.32 0.35
0.01 0.02 0.03 0.04 0.05 0.06 0.07 0.08 0.09 0.10 0.05 0.01 0.00 0.00 0.00 0.00 0.00 0.00 0.00 0.00 0.00 0.00 0.00 0.01 0.01 0.01 0.01 0.03 0.05 0.10 0.19 0.32 0.45 0.39 0.28 0.25 0.28 0.29
0.00 0.01 0.01 0.02 0.03 0.04 0.05 0.05 0.06 0.08 0.07 0.02 0.00 0.00 0.00 0.00 0.00 0.00 0.00 0.00 0.00 0.00 0.00 0.01 0.01 0.01 0.01 0.02 0.04 0.07 0.14 0.24 0.40 0.47 0.40 0.31 0.28 0.25
0.00 0.00 0.00 0.00 0.01 0.02 0.03 0.04 0.04 0.04 0.04 0.03 0.01 0.00 0.00 0.01 0.01 0.01 0.00 0.00 0.00 0.00 0.01 0.01 0.01 0.01 0.02 0.02 0.03 0.05 0.10 0.19 0.36 0.51 0.48 0.38 0.30 0.26
0.00 0.00 0.00 0.00 0.01 0.02 0.02 0.03 0.03 0.02 0.02 0.03 0.01 0.01 0.01 0.01 0.01 0.01 0.01 0.01 0.01 0.01 0.01 0.01 0.02 0.02 0.02 0.02 0.03 0.05 0.08 0.14 0.26 0.47 0.60 0.50 0.39 0.32
0.00 0.00 0.00 0.00 0.01 0.03 0.03 0.03 0.03 0.02 0.02 0.02 0.02 0.02 0.01 0.01 0.01 0.02 0.01 0.01 0.01 0.01 0.01 0.01 0.02 0.02 0.02 0.02 0.03 0.05 0.07 0.10 0.19 0.33 0.56 0.66 0.52 0.39
0.01 0.01 0.01 0.01 0.01 0.04 0.05 0.05 0.04 0.03 0.02 0.03 0.02 0.02 0.01 0.01 0.02 0.02 0.02 0.01 0.01 0.02 0.02 0.02 0.02 0.02 0.02 0.02 0.03 0.05 0.07 0.08 0.12 0.22 0.39 0.58 0.63 0.50
0.03 0.02 0.00 0.00 0.01 0.02 0.04 0.04 0.04 0.05 0.05 0.05 0.03 0.02 0.02 0.02 0.02 0.03 0.03 0.03 0.03 0.03 0.03 0.03 0.04 0.03 0.03 0.03 0.04 0.05 0.06 0.08 0.09 0.13 0.22 0.40 0.54 0.59
0.02 0.01 0.00 0.00 0.01 0.02 0.04 0.02 0.01 0.02 0.05 0.07 0.05 0.03 0.03 0.02 0.03 0.03 0.03 0.04 0.03 0.02 0.03 0.04 0.06 0.05 0.04 0.04 0.05 0.06 0.06 0.07 0.08 0.09 0.12 0.22 0.37 0.50
0.01 0.01 0.00 0.00 0.01 0.04 0.03 0.01 0.01 0.01 0.04 0.06 0.06 0.05 0.04 0.04 0.04 0.04 0.04 0.03 0.03 0.03 0.03 0.05 0.07 0.07 0.07 0.06 0.06 0.07 0.07 0.07 0.07 0.07 0.08 0.12 0.20 0.34
0.01 0.00 0.00 0.01 0.02 0.04 0.01 0.00 0.01 0.02 0.02 0.04 0.05 0.05 0.04 0.04 0.05 0.05 0.04 0.05 0.06 0.07 0.07 0.08 0.10 0.11 0.11 0.09 0.07 0.08 0.08 0.08 0.07 0.07 0.07 0.08 0.12 0.21
0.01 0.00 0.00 0.01 0.02 0.02 0.01 0.01 0.02 0.03 0.02 0.02 0.02 0.02 0.02 0.02 0.03 0.05 0.06 0.07 0.10 0.12 0.10 0.09 0.12 0.14 0.15 0.14 0.11 0.08 0.08 0.09 0.08 0.08 0.08 0.08 0.11 0.16
0.01 0.00 0.00 0.01 0.01 0.01 0.01 0.01 0.03 0.04 0.02 0.03 0.03 0.03 0.02 0.02 0.02 0.04 0.05 0.07 0.11 0.14 0.12 0.09 0.13 0.16 0.17 0.18 0.17 0.12 0.09 0.08 0.07 0.08 0.09 0.10 0.12 0.13
0.01 0.00 0.00 0.01 0.01 0.00 0.00 0.01 0.01 0.01 0.02 0.03 0.04 0.03 0.03 0.03 0.03 0.03 0.04 0.05 0.09 0.13 0.13 0.12 0.16 0.19 0.18 0.19 0.20 0.18 0.14 0.10 0.07 0.06 0.07 0.11 0.16 0.17
0.01 0.00 0.00 0.00 0.00 0.00 0.00 0.00 0.00 0.01 0.02 0.03 0.04 0.04 0.03 0.04 0.03 0.03 0.03 0.04 0.07 0.13 0.14 0.12 0.16 0.19 0.19 0.21 0.22 0.21 0.18 0.15 0.09 0.06 0.07 0.09 0.15 0.19
0.00 0.00 0.00 0.00 0.00 0.00 0.00 0.00 0.00 0.01 0.02 0.03 0.04 0.03 0.03 0.03 0.03 0.04 0.04 0.05 0.07 0.11 0.13 0.12 0.15 0.18 0.18 0.22 0.23 0.22 0.19 0.17 0.13 0.08 0.08 0.10 0.14 0.15
0.00 0.00 0.00 0.00 0.00 0.00 0.00 0.00 0.00 0.00 0.01 0.01 0.02 0.03 0.02 0.03 0.03 0.04 0.05 0.05 0.07 0.10 0.12 0.13 0.14 0.17 0.20 0.24 0.27 0.26 0.21 0.18 0.14 0.11 0.10 0.14 0.19 0.19
0.00 0.00 0.00 0.00 0.00 0.00 0.00 0.00 0.00 0.00 0.01 0.01 0.02 0.02 0.03 0.03 0.03 0.03 0.04 0.05 0.06 0.09 0.11 0.13 0.13 0.15 0.19 0.25 0.33 0.32 0.27 0.23 0.19 0.15 0.12 0.13 0.22 0.24
0.00 0.00 0.01 0.01 0.01 0.00 0.00 0.00 0.00 0.00 0.00 0.01 0.01 0.02 0.02 0.02 0.02 0.03 0.03 0.04 0.05 0.07 0.09 0.11 0.12 0.16 0.18 0.23 0.31 0.38 0.34 0.28 0.25 0.23 0.19 0.14 0.17 0.24
0.00 0.00 0.01 0.01 0.01 0.01 0.01 0.00 0.00 0.00 0.00 0.00 0.00 0.01 0.01 0.02 0.02 0.02 0.03 0.04 0.04 0.05 0.07 0.09 0.11 0.15 0.18 0.20 0.25 0.34 0.42 0.35 0.27 0.26 0.24 0.19 0.21 0.33
0.00 0.00 0.01 0.01 0.01 0.01 0.01 0.00 0.00 0.00 0.00 0.00 0.00 0.00 0.01 0.01 0.02 0.02 0.02 0.03 0.04 0.04 0.06 0.08 0.10 0.14 0.17 0.17 0.20 0.27 0.37 0.45 0.36 0.26 0.22 0.19 0.21 0.26
0.00 0.00 0.01 0.01 0.01 0.01 0.01 0.01 0.00 0.00 0.00 0.00 0.00 0.00 0.00 0.01 0.01 0.02 0.02 0.02 0.03 0.04 0.05 0.06 0.08 0.10 0.14 0.16 0.19 0.22 0.27 0.37 0.44 0.40 0.30 0.20 0.14 0.17
0.01 0.01 0.01 0.01 0.02 0.01 0.01 0.01 0.01 0.00 0.00 0.00 0.00 0.00 0.00 0.00 0.01 0.01 0.01 0.02 0.02 0.03 0.04 0.05 0.07 0.10 0.14 0.18 0.20 0.20 0.21 0.27 0.34 0.37 0.41 0.38 0.23 0.15
MSLP
1022.60 1021.95 1021.27 1020.55 1019.80 1018.99 1018.12 1017.18 1016.20 1015.17 1014.13 1013.11 1012.12 1011.20 1010.35 1009.59 1008.91 1008.30 1007.76 1007.27 1006.83 1006.42 1006.05 1005.70 1005.37 1005.06 1004.76 1004.48 1004.23 1004.02 1003.88 1003.83 1003.90 1004.13 1004.53 1005.13 1005.90 1006.83
1022.18 1021.54 1020.87 1020.17 1019.42 1018.62 1017.77 1016.86 1015.90 1014.90 1013.90 1012.92 1011.97 1011.07 1010.23 1009.46 1008.74 1008.09 1007.47 1006.91 1006.39 1005.91 1005.47 1005.08 1004.73 1004.42 1004.14 1003.89 1003.66 1003.48 1003.34 1003.29 1003.34 1003.52 1003.87 1004.41 1005.12 1006.00
1021.63 1021.01 1020.37 1019.69 1018.97 1018.20 1017.38 1016.51 1015.59 1014.65 1013.70 1012.77 1011.87 1011.01 1010.19 1009.42 1008.68 1007.97 1007.29 1006.63 1006.01 1005.43 1004.90 1004.44 1004.04 1003.70 1003.42 1003.18 1003.00 1002.85 1002.76 1002.73 1002.80 1002.98 1003.31 1003.81 1004.48 1005.31
1020.94 1020.35 1019.75 1019.11 1018.44 1017.72 1016.94 1016.12 1015.26 1014.39 1013.51 1012.64 1011.81 1011.00 1010.22 1009.46 1008.70 1007.95 1007.19 1006.44 1005.71 1005.01 1004.37 1003.80 1003.32 1002.93 1002.62 1002.40 1002.25 1002.16 1002.13 1002.17 1002.29 1002.51 1002.86 1003.34 1003.98 1004.76
1020.12 1019.57 1019.02 1018.44 1017.83 1017.16 1016.45 1015.69 1014.90 1014.09 1013.29 1012.50 1011.74 1010.99 1010.26 1009.52 1008.77 1007.98 1007.17 1006.33 1005.48 1004.66 1003.89 1003.20 1002.62 1002.15 1001.81 1001.58 1001.46 1001.43 1001.47 1001.60 1001.80 1002.09 1002.47 1002.98 1003.60 1004.33
1019.20 1018.71 1018.21 1017.70 1017.15 1016.55 1015.90 1015.20 1014.48 1013.74 1013.02 1012.30 1011.62 1010.95 1010.27 1009.58 1008.84 1008.04 1007.19 1006.27 1005.33 1004.39 1003.49 1002.68 1001.98 1001.43 1001.03 1000.78 1000.68 1000.70 1000.82 1001.04 1001.33 1001.70 1002.14 1002.67 1003.27 1003.97
1018.27 1017.83 1017.39 1016.94 1016.45 1015.91 1015.31 1014.67 1014.01 1013.33 1012.67 1012.03 1011.41 1010.81 1010.21 1009.57 1008.87 1008.09 1007.21 1006.26 1005.24 1004.21 1003.20 1002.27 1001.46 1000.81 1000.34 1000.06 999.95 1000.01 1000.20 1000.49 1000.87 1001.32 1001.82 1002.37 1002.96 1003.61
1017.39 1016.99 1016.60 1016.20 1015.76 1015.27 1014.72 1014.12 1013.49 1012.86 1012.25 1011.66 1011.11 1010.57 1010.03 1009.46 1008.81 1008.07 1007.21 1006.24 1005.19 1004.09 1003.00 1001.97 1001.06 1000.31 999.77 999.44 999.32 999.39 999.62 999.97 1000.42 1000.92 1001.47 1002.04 1002.62 1003.22
1016.64 1016.27 1015.92 1015.55 1015.14 1014.67 1014.15 1013.57 1012.96 1012.35 1011.77 1011.21 1010.71 1010.22 1009.74 1009.23 1008.64 1007.95 1007.13 1006.18 1005.12 1004.00 1002.85 1001.76 1000.77 999.95 999.33 998.94 998.79 998.85 999.09 999.47 999.96 1000.51 1001.08 1001.66 1002.23 1002.79
1016.08 1015.72 1015.39 1015.03 1014.63 1014.17 1013.64 1013.06 1012.45 1011.84 1011.26 1010.71 1010.22 1009.77 1009.33 1008.86 1008.33 1007.70 1006.93 1006.02 1004.99 1003.87 1002.71 1001.59 1000.55 999.67 998.99 998.55 998.35 998.38 998.61 998.99 999.49 1000.05 1000.64 1001.22 1001.78 1002.32
1015.71 1015.36 1015.02 1014.66 1014.25 1013.77 1013.23 1012.63 1012.00 1011.37 1010.76 1010.21 1009.71 1009.26 1008.83 1008.39 1007.89 1007.30 1006.59 1005.73 1004.74 1003.65 1002.51 1001.39 1000.34 999.43 998.71 998.22 997.98 997.96 998.16 998.52 999.01 999.56 1000.15 1000.74 1001.30 1001.84
1015.51 1015.15 1014.80 1014.42 1014.00 1013.50 1012.94 1012.31 1011.65 1010.98 1010.34 1009.74 1009.20 1008.73 1008.28 1007.83 1007.34 1006.77 1006.09 1005.28 1004.34 1003.30 1002.20 1001.10 1000.07 999.16 998.42 997.90 997.62 997.57 997.72 998.05 998.51 999.05 999.63 1000.22 1000.81 1001.37
1015.45 1015.07 1014.70 1014.31 1013.87 1013.35 1012.76 1012.11 1011.41 1010.70 1010.01 1009.36 1008.77 1008.24 1007.74 1007.25 1006.73 1006.15 1005.48 1004.70 1003.80 1002.81 1001.76 1000.71 999.71 998.83 998.10 997.57 997.26 997.16 997.28 997.56 997.99 998.51 999.09 999.70 1000.32 1000.94
1015.46 1015.07 1014.69 1014.29 1013.83 1013.30 1012.70 1012.02 1011.30 1010.56 1009.82 1009.12 1008.46 1007.84 1007.27 1006.71 1006.13 1005.51 1004.81 1004.03 1003.16 1002.21 1001.22 1000.22 999.28 998.43 997.73 997.20 996.88 996.76 996.83 997.07 997.46 997.96 998.54 999.17 999.83 1000.53
1015.50 1015.11 1014.73 1014.32 1013.86 1013.33 1012.72 1012.05 1011.32 1010.56 1009.79 1009.03 1008.30 1007.60 1006.94 1006.28 1005.62 1004.93 1004.18 1003.38 1002.51 1001.59 1000.64 999.70 998.82 998.02 997.35 996.84 996.51 996.36 996.40 996.60 996.95 997.42 997.99 998.65 999.37 1000.15
1015.56 1015.17 1014.78 1014.38 1013.93 1013.41 1012.82 1012.17 1011.45 1010.69 1009.90 1009.11 1008.32 1007.55 1006.80 1006.04 1005.29 1004.51 1003.69 1002.84 1001.96 1001.05 1000.13 999.24 998.40 997.65 997.02 996.52 996.19 996.03 996.03 996.19 996.50 996.94 997.50 998.18 998.95 999.81
1015.61 1015.23 1014.85 1014.45 1014.02 1013.52 1012.97 1012.35 1011.66 1010.93 1010.16 1009.36 1008.54 1007.72 1006.89 1006.05 1005.20 1004.33 1003.44 1002.53 1001.61 1000.69 999.79 998.93 998.13 997.42 996.82 996.34 996.01 995.82 995.78 995.90 996.17 996.58 997.12 997.81 998.62 999.55
1015.68 1015.30 1014.93 1014.54 1014.12 1013.65 1013.14 1012.57 1011.94 1011.25 1010.52 1009.74 1008.93 1008.09 1007.21 1006.31 1005.39 1004.44 1003.49 1002.52 1001.56 1000.62 999.72 998.87 998.10 997.42 996.83 996.37 996.03 995.82 995.75 995.83 996.05 996.42 996.95 997.63 998.46 999.44
1015.78 1015.40 1015.02 1014.62 1014.22 1013.78 1013.31 1012.79 1012.23 1011.62 1010.95 1010.23 1009.45 1008.62 1007.74 1006.81 1005.85 1004.85 1003.84 1002.82 1001.82 1000.86 999.95 999.11 998.35 997.68 997.11 996.66 996.31 996.09 996.00 996.04 996.22 996.56 997.06 997.73 998.57 999.58
1015.91 1015.51 1015.12 1014.71 1014.31 1013.89 1013.45 1012.99 1012.50 1011.97 1011.39 1010.75 1010.04 1009.26 1008.41 1007.49 1006.51 1005.49 1004.45 1003.40 1002.37 1001.39 1000.47 999.63 998.88 998.22 997.67 997.22 996.89 996.66 996.55 996.57 996.73 997.05 997.53 998.19 999.03 1000.05
1016.06 1015.64 1015.22 1014.79 1014.37 1013.96 1013.55 1013.15 1012.73 1012.28 1011.80 1011.26 1010.64 1009.94 1009.14 1008.26 1007.31 1006.29 1005.24 1004.18 1003.14 1002.15 1001.22 1000.39 999.65 999.01 998.48 998.06 997.74 997.53 997.43 997.45 997.61 997.92 998.40 999.06 999.89 1000.90
1016.21 1015.76 1015.30 1014.84 1014.40 1013.98 1013.59 1013.23 1012.88 1012.52 1012.13 1011.70 1011.18 1010.58 1009.86 1009.05 1008.14 1007.15 1006.12 1005.07 1004.03 1003.05 1002.13 1001.31 1000.60 999.99 999.50 999.11 998.84 998.66 998.60 998.65 998.83 999.16 999.65 1000.30 1001.14 1002.15
1016.32 1015.84 1015.34 1014.85 1014.37 1013.95 1013.57 1013.24 1012.95 1012.67 1012.38 1012.05 1011.64 1011.14 1010.52 1009.78 1008.94 1008.01 1007.01 1005.98 1004.97 1004.01 1003.12 1002.33 1001.65 1001.09 1000.65 1000.33 1000.11 1000.00 999.99 1000.10 1000.33 1000.69 1001.20 1001.87 1002.71 1003.70
Thickness
5130 5127 5125 5125 5126 5128 5131 5134 5139 5150 5165 5177 5191 5209 5228 5249 5268 5288 5307 5326 5347 5372 5398 5426 5455 5483 5511 5539 5564 5588 5610 5630 5647 5661 5670 5676 5680 5682
5130 5126 5123 5124 5126 5128 5132 5136 5140 5146 5159 5173 5187 5204 5223 5243 5263 5282 5299 5318 5339 5362 5387 5415 5443 5471 5499 5526 5552 5576 5599 5620 5638 5654 5665 5672 5676 5679
5131 5126 5124 5124 5126 5129 5133 5137 5142 5148 5157 5173 5185 5201 5219 5238 5258 5276 5293 5311 5330 5353 5378 5405 5433 5461 5488 5515 5541 5566 5589 5610 5630 5646 5659 5667 5672 5676
5134 5129 5126 5126 5127 5130 5134 5139 5144 5150 5157 5169 5184 5199 5216 5235 5254 5271 5288 5306 5324 5346 5370 5397 5425 5453 5479 5506 5531 5556 5579 5601 5621 5638 5653 5663 5669 5671
5140 5134 5131 5129 5130 5134 5138 5143 5148 5154 5159 5168 5182 5197 5214 5231 5249 5266 5283 5300 5318 5341 5365 5391 5419 5446 5472 5498 5523 5548 5571 5594 5614 5631 5645 5656 5663 5667
5147 5142 5137 5135 5136 5139 5144 5148 5153 5157 5163 5170 5182 5196 5211 5227 5242 5259 5277 5294 5313 5334 5359 5385 5413 5440 5467 5493 5520 5543 5564 5584 5604 5622 5637 5649 5657 5663
5157 5150 5145 5144 5145 5147 5151 5154 5157 5161 5166 5173 5184 5195 5208 5221 5235 5250 5267 5286 5308 5330 5352 5378 5406 5436 5463 5488 5511 5534 5556 5577 5597 5615 5630 5642 5651 5657
5165 5158 5153 5151 5151 5153 5155 5159 5163 5164 5169 5176 5185 5193 5204 5216 5230 5245 5260 5276 5299 5323 5342 5370 5398 5429 5459 5484 5509 5531 5551 5571 5591 5609 5623 5635 5644 5652
5173 5166 5162 5159 5158 5157 5159 5162 5164 5168 5174 5179 5186 5193 5204 5215 5228 5243 5256 5270 5288 5308 5328 5363 5395 5427 5457 5484 5507 5527 5547 5565 5584 5601 5617 5629 5638 5646
5180 5174 5169 5165 5164 5166 5167 5167 5168 5171 5177 5182 5188 5197 5207 5218 5229 5242 5255 5270 5288 5309 5329 5359 5395 5427 5457 5482 5505 5524 5543 5560 5579 5595 5609 5621 5632 5639
5186 5180 5176 5173 5173 5175 5174 5173 5175 5178 5183 5187 5194 5201 5211 5221 5232 5242 5254 5266 5287 5313 5337 5362 5395 5425 5454 5479 5502 5521 5539 5556 5573 5589 5602 5613 5623 5631
5191 5186 5182 5181 5182 5182 5180 5179 5181 5185 5187 5191 5196 5203 5210 5219 5231 5240 5251 5264 5280 5306 5335 5358 5389 5419 5451 5476 5498 5517 5534 5551 5569 5584 5597 5607 5616 5624
5196 5191 5187 5189 5189 5188 5187 5185 5188 5190 5190 5194 5199 5206 5213 5221 5231 5242 5253 5266 5281 5301 5327 5348 5377 5410 5443 5472 5494 5515 5533 5550 5566 5579 5590 5601 5611 5620
5200 5196 5194 5195 5194 5192 5191 5193 5194 5194 5194 5198 5203 5209 5217 5225 5236 5248 5261 5275 5290 5307 5327 5346 5370 5402 5435 5467 5492 5512 5531 5549 5564 5577 5587 5595 5602 5612
5204 5202 5200 5198 5196 5194 5195 5196 5196 5196 5199 5202 5207 5213 5221 5230 5242 5256 5271 5286 5303 5319 5337 5355 5375 5401 5428 5459 5486 5510 5529 5545 5561 5574 5584 5593 5602 5608
5209 5204 5201 5199 5197 5197 5197 5197 5198 5200 5202 5205 5211 5218 5227 5237 5249 5262 5277 5293 5311 5330 5348 5365 5384 5406 5432 5457 5482 5506 5525 5542 5558 5572 5582 5590 5596 5603
5214 5207 5204 5201 5200 5199 5199 5200 5201 5203 5206 5210 5215 5223 5232 5242 5254 5266 5281 5297 5312 5330 5351 5372 5391 5411 5432 5453 5479 5501 5520 5538 5556 5570 5578 5583 5590 5597
5216 5209 5205 5202 5201 5200 5200 5201 5203 5205 5208 5212 5218 5225 5234 5244 5257 5270 5283 5298 5314 5331 5350 5371 5392 5415 5435 5454 5470 5493 5515 5534 5550 5564 5575 5580 5582 5588
5216 5210 5206 5203 5201 5200 5200 5201 5203 5206 5209 5214 5220 5227 5236 5247 5258 5271 5285 5299 5315 5331 5350 5369 5390 5412 5435 5452 5466 5484 5506 5526 5543 5555 5564 5572 5577 5582
5218 5213 5208 5205 5203 5201 5202 5203 5204 5208 5211 5215 5221 5228 5237 5247 5259 5270 5283 5298 5313 5330 5349 5368 5386 5404 5424 5441 5457 5473 5495 5518 5536 5546 5552 5557 5562 5567
5220 5216 5211 5208 5204 5203 5202 5203 5205 5208 5211 5215 5222 5229 5237 5247 5257 5269 5281 5297 5311 5327 5345 5364 5381 5400 5417 5435 5453 5464 5480 5501 5522 5536 5546 5553 5553 5552
5221 5217 5214 5210 5207 5204 5203 5204 5205 5208 5211 5215 5221 5228 5237 5246 5256 5266 5278 5293 5307 5323 5341 5360 5379 5398 5415 5433 5446 5456 5470 5487 5504 5519 5532 5546 5553 5550
5223 5219 5216 5213 5210 5207 5205 5204 5205 5206 5209 5213 5219 5226 5235 5244 5254 5264 5276 5289 5303 5319 5337 5355 5374 5390 5405 5421 5435 5446 5459 5473 5488 5500 5507 5522 5536 5540